Location: Unspecified
(41.5000°N, 0.0000°E)
Time: 01:34:09
(UTC+00:00)

A-11 Canister half - Pass Details

Date: 04 July 2019
Orbit: 1527 x 1682 km, 47.3° (Epoch: 13 October)

Event Time Altitude Azimuth Distance (km) Brightness Sun altitude
Exits shadow 00:37:02 42° 190° (S) 2,150 9.2 -25.1°
Maximum altitude 00:40:04 56° 141° (SE) 1,842 9.1 -25.1°
Drops below altitude 10° 00:49:12 10° 67° (ENE) 3,739 11.4 -24.8°
Sets 00:52:17 0° 63° (ENE) 4,710 12.1 -24.6°
